Time,TemperatureF,DewpointF,PressureIn,WindDirection,WindDirectionDegrees,WindSpeedMPH,WindSpeedGustMPH,Humidity,HourlyPrecipIn,Conditions,Clouds,dailyrainin,SolarRadiationWatts/m^2,SoftwareType,DateUTC
2013-04-30 00:02:00,51.0,51.0,-100.00,SSW,198,2.0,6.0,99,-99.99,,,0.29,1.000000,,2013-04-30 05:02:00,
2013-04-30 00:12:00,51.0,51.0,-100.00,SSW,198,2.0,6.0,99,-99.99,,,0.29,1.000000,,2013-04-30 05:12:00,
2013-04-30 00:22:00,51.0,51.0,-100.00,SSW,198,2.0,6.0,99,-99.99,,,0.29,1.000000,,2013-04-30 05:22:00,
2013-04-30 00:31:00,51.0,51.0,-100.00,SSW,198,2.0,6.0,99,-99.99,,,0.29,1.000000,,2013-04-30 05:31:00,
2013-04-30 01:02:00,49.0,49.0,-100.00,SSW,195,1.0,7.0,99,0.00,,,0.28,1.000000,,2013-04-30 06:02:00,
2013-04-30 01:12:00,49.0,49.0,-100.00,SSW,195,1.0,7.0,99,0.00,,,0.28,1.000000,,2013-04-30 06:12:00,
2013-04-30 01:21:00,49.0,49.0,-100.00,SSW,195,1.0,7.0,99,0.00,,,0.28,1.000000,,2013-04-30 06:21:00,
2013-04-30 01:31:00,49.0,49.0,-100.00,SSW,195,1.0,7.0,99,0.00,,,0.28,1.000000,,2013-04-30 06:31:00,
2013-04-30 02:01:00,46.0,46.0,-100.00,SW,221,1.0,3.0,99,0.00,,,0.25,1.000000,,2013-04-30 07:01:00,
2013-04-30 02:11:00,46.0,46.0,-100.00,SW,221,1.0,3.0,99,0.00,,,0.25,1.000000,,2013-04-30 07:11:00,
2013-04-30 02:21:00,46.0,46.0,-100.00,SW,221,1.0,3.0,99,0.00,,,0.25,1.000000,,2013-04-30 07:21:00,
2013-04-30 02:31:00,46.0,46.0,-100.00,SW,221,1.0,3.0,99,0.00,,,0.25,1.000000,,2013-04-30 07:31:00,
2013-04-30 03:02:00,45.0,45.0,-100.00,ENE,62,1.0,4.0,100,0.00,,,0.04,1.000000,,2013-04-30 08:02:00,
2013-04-30 03:11:00,45.0,45.0,-100.00,ENE,62,1.0,4.0,100,0.00,,,0.04,1.000000,,2013-04-30 08:11:00,
2013-04-30 03:22:00,45.0,45.0,-100.00,ENE,62,1.0,4.0,100,0.00,,,0.04,1.000000,,2013-04-30 08:22:00,
2013-04-30 03:32:00,45.0,45.0,-100.00,ENE,62,1.0,4.0,100,0.00,,,0.04,1.000000,,2013-04-30 08:32:00,
2013-04-30 04:01:00,47.0,47.0,-100.00,SSW,203,1.0,5.0,100,0.00,,,0.00,1.000000,,2013-04-30 09:01:00,
2013-04-30 04:11:00,47.0,47.0,-100.00,SSW,203,1.0,5.0,100,0.00,,,0.00,1.000000,,2013-04-30 09:11:00,
2013-04-30 04:22:00,47.0,47.0,-100.00,SSW,203,1.0,5.0,100,0.00,,,0.00,1.000000,,2013-04-30 09:22:00,
2013-04-30 04:33:00,47.0,47.0,-100.00,SSW,203,1.0,5.0,100,0.00,,,0.00,1.000000,,2013-04-30 09:33:00,
2013-04-30 05:03:00,50.0,50.0,-100.00,SW,219,4.0,9.0,100,0.00,,,0.00,1.000000,,2013-04-30 10:03:00,
2013-04-30 05:11:00,50.0,50.0,-100.00,SW,219,4.0,9.0,100,0.00,,,0.00,1.000000,,2013-04-30 10:11:00,
2013-04-30 05:22:00,50.0,50.0,-100.00,SW,219,4.0,9.0,100,0.00,,,0.00,1.000000,,2013-04-30 10:22:00,
2013-04-30 05:32:00,50.0,50.0,-100.00,SW,219,4.0,9.0,100,0.00,,,0.00,1.000000,,2013-04-30 10:32:00,
2013-04-30 06:02:00,49.0,49.0,-100.00,SSW,207,2.0,7.0,99,0.00,,,0.00,1.000000,,2013-04-30 11:02:00,
2013-04-30 06:11:00,49.0,49.0,-100.00,SSW,207,2.0,7.0,99,0.00,,,0.00,1.000000,,2013-04-30 11:11:00,
2013-04-30 06:21:00,49.0,49.0,-100.00,SSW,207,2.0,7.0,99,0.00,,,0.00,1.000000,,2013-04-30 11:21:00,
2013-04-30 06:31:00,49.0,49.0,-100.00,SSW,207,2.0,7.0,99,0.00,,,0.00,1.000000,,2013-04-30 11:31:00,
2013-04-30 07:01:00,52.0,51.0,-100.00,South,185,4.0,10.0,98,0.00,,,0.00,34.000000,,2013-04-30 12:01:00,
2013-04-30 07:11:00,52.0,51.0,-100.00,South,185,4.0,10.0,98,0.00,,,0.00,34.000000,,2013-04-30 12:11:00,
2013-04-30 07:21:00,52.0,51.0,-100.00,South,185,4.0,10.0,98,0.00,,,0.00,34.000000,,2013-04-30 12:21:00,
2013-04-30 07:31:00,52.0,51.0,-100.00,South,185,4.0,10.0,98,0.00,,,0.00,34.000000,,2013-04-30 12:31:00,
2013-04-30 09:02:00,57.0,53.0,-100.00,South,177,6.0,14.0,87,-99.99,,,0.00,163.000000,,2013-04-30 14:02:00,
2013-04-30 09:11:00,57.0,53.0,-100.00,South,177,6.0,14.0,87,-99.99,,,0.00,163.000000,,2013-04-30 14:11:00,
2013-04-30 09:21:00,57.0,53.0,-100.00,South,177,6.0,14.0,87,-99.99,,,0.00,163.000000,,2013-04-30 14:21:00,
2013-04-30 09:31:00,57.0,53.0,-100.00,South,177,6.0,14.0,87,-99.99,,,0.00,163.000000,,2013-04-30 14:31:00,
2013-04-30 10:01:00,58.0,53.0,-100.00,South,190,5.0,12.0,83,0.00,,,0.00,303.000000,,2013-04-30 15:01:00,
2013-04-30 10:11:00,58.0,53.0,-100.00,South,190,5.0,12.0,83,0.00,,,0.00,303.000000,,2013-04-30 15:11:00,
2013-04-30 10:21:00,58.0,53.0,-100.00,South,190,5.0,12.0,83,0.00,,,0.00,303.000000,,2013-04-30 15:21:00,
2013-04-30 10:32:00,58.0,53.0,-100.00,South,190,5.0,12.0,83,0.00,,,0.00,303.000000,,2013-04-30 15:32:00,
2013-04-30 11:02:00,64.0,55.0,-100.00,SSW,193,6.0,18.0,72,0.00,,,0.00,417.000000,,2013-04-30 16:02:00,
2013-04-30 11:12:00,64.0,55.0,-100.00,SSW,193,6.0,18.0,72,0.00,,,0.00,417.000000,,2013-04-30 16:12:00,
2013-04-30 11:23:00,64.0,55.0,-100.00,SSW,193,6.0,18.0,72,0.00,,,0.00,417.000000,,2013-04-30 16:23:00,
2013-04-30 11:33:00,64.0,55.0,-100.00,SSW,193,6.0,18.0,72,0.00,,,0.00,417.000000,,2013-04-30 16:33:00,
2013-04-30 12:02:00,71.0,56.0,-100.00,South,191,8.0,21.0,59,0.00,,,0.00,713.000000,,2013-04-30 17:02:00,
2013-04-30 12:12:00,71.0,56.0,-100.00,South,191,8.0,21.0,59,0.00,,,0.00,713.000000,,2013-04-30 17:12:00,
2013-04-30 12:22:00,71.0,56.0,-100.00,South,191,8.0,21.0,59,0.00,,,0.00,713.000000,,2013-04-30 17:22:00,
2013-04-30 12:32:00,71.0,56.0,-100.00,South,191,8.0,21.0,59,0.00,,,0.00,713.000000,,2013-04-30 17:32:00,
2013-04-30 13:01:00,76.0,56.0,-100.00,South,184,7.0,17.0,50,0.00,,,0.00,794.000000,,2013-04-30 18:01:00,
2013-04-30 13:11:00,76.0,56.0,-100.00,South,184,7.0,17.0,50,0.00,,,0.00,794.000000,,2013-04-30 18:11:00,
2013-04-30 13:22:00,76.0,56.0,-100.00,South,184,7.0,17.0,50,0.00,,,0.00,794.000000,,2013-04-30 18:22:00,
2013-04-30 13:32:00,76.0,56.0,-100.00,South,184,7.0,17.0,50,0.00,,,0.00,794.000000,,2013-04-30 18:32:00,
2013-04-30 14:01:00,76.0,54.0,-100.00,SW,228,10.0,27.0,46,0.00,,,0.00,677.000000,,2013-04-30 19:01:00,
2013-04-30 14:11:00,76.0,54.0,-100.00,SW,228,10.0,27.0,46,0.00,,,0.00,677.000000,,2013-04-30 19:11:00,
2013-04-30 14:22:00,76.0,54.0,-100.00,SW,228,10.0,27.0,46,0.00,,,0.00,677.000000,,2013-04-30 19:22:00,
2013-04-30 14:32:00,76.0,54.0,-100.00,SW,228,10.0,27.0,46,0.00,,,0.00,677.000000,,2013-04-30 19:32:00,
2013-04-30 15:02:00,79.0,54.0,-100.00,SW,224,10.0,19.0,42,0.00,,,0.00,568.000000,,2013-04-30 20:02:00,
2013-04-30 15:11:00,79.0,54.0,-100.00,SW,224,10.0,19.0,42,0.00,,,0.00,568.000000,,2013-04-30 20:11:00,
2013-04-30 15:21:00,79.0,54.0,-100.00,SW,224,10.0,19.0,42,0.00,,,0.00,568.000000,,2013-04-30 20:21:00,
2013-04-30 15:32:00,79.0,54.0,-100.00,SW,224,10.0,19.0,42,0.00,,,0.00,568.000000,,2013-04-30 20:32:00,
2013-04-30 16:02:00,79.0,54.0,-100.00,WSW,239,5.0,18.0,42,0.00,,,0.00,390.000000,,2013-04-30 21:02:00,
2013-04-30 16:11:00,79.0,54.0,-100.00,WSW,239,5.0,18.0,42,0.00,,,0.00,390.000000,,2013-04-30 21:11:00,
2013-04-30 16:22:00,79.0,54.0,-100.00,WSW,239,5.0,18.0,42,0.00,,,0.00,390.000000,,2013-04-30 21:22:00,
2013-04-30 16:32:00,79.0,54.0,-100.00,WSW,239,5.0,18.0,42,0.00,,,0.00,390.000000,,2013-04-30 21:32:00,
2013-04-30 17:02:00,79.0,50.0,-100.00,SW,233,7.0,15.0,37,0.00,,,0.00,483.000000,,2013-04-30 22:02:00,
2013-04-30 17:12:00,79.0,50.0,-100.00,SW,233,7.0,15.0,37,0.00,,,0.00,483.000000,,2013-04-30 22:12:00,
2013-04-30 17:23:00,79.0,50.0,-100.00,SW,233,7.0,15.0,37,0.00,,,0.00,483.000000,,2013-04-30 22:23:00,
2013-04-30 17:32:00,79.0,50.0,-100.00,SW,233,7.0,15.0,37,0.00,,,0.00,483.000000,,2013-04-30 22:32:00,
2013-04-30 18:02:00,80.0,46.0,-100.00,WSW,241,8.0,15.0,30,0.00,,,0.00,355.000000,,2013-04-30 23:02:00,
2013-04-30 18:12:00,80.0,46.0,-100.00,WSW,241,8.0,15.0,30,0.00,,,0.00,355.000000,,2013-04-30 23:12:00,
2013-04-30 18:22:00,80.0,46.0,-100.00,WSW,241,8.0,15.0,30,0.00,,,0.00,355.000000,,2013-04-30 23:22:00,
2013-04-30 18:32:00,80.0,46.0,-100.00,WSW,241,8.0,15.0,30,0.00,,,0.00,355.000000,,2013-04-30 23:32:00,
2013-04-30 19:02:00,77.0,42.0,-100.00,WSW,242,4.0,14.0,29,0.00,,,0.00,237.000000,,2013-05-01 00:02:00,
2013-04-30 19:11:00,77.0,42.0,-100.00,WSW,242,4.0,14.0,29,0.00,,,0.00,237.000000,,2013-05-01 00:11:00,
2013-04-30 19:22:00,77.0,42.0,-100.00,WSW,242,4.0,14.0,29,0.00,,,0.00,237.000000,,2013-05-01 00:22:00,
2013-04-30 19:32:00,77.0,42.0,-100.00,WSW,242,4.0,14.0,29,0.00,,,0.00,237.000000,,2013-05-01 00:32:00,
2013-04-30 19:52:00,68.0,48.0,-100.00,NNE,23,4.0,8.0,49,0.00,,,0.00,95.000000,,2013-05-01 00:52:00,
2013-04-30 20:01:00,68.0,48.0,-100.00,NNE,23,4.0,8.0,49,0.00,,,0.00,95.000000,,2013-05-01 01:01:00,
2013-04-30 20:11:00,68.0,48.0,-100.00,NNE,23,4.0,8.0,49,0.00,,,0.00,95.000000,,2013-05-01 01:11:00,
2013-04-30 20:21:00,68.0,48.0,-100.00,NNE,23,4.0,8.0,49,0.00,,,0.00,95.000000,,2013-05-01 01:21:00,
2013-04-30 20:31:00,68.0,48.0,-100.00,NNE,23,4.0,8.0,49,0.00,,,0.00,95.000000,,2013-05-01 01:31:00,
2013-04-30 21:02:00,56.0,46.0,-100.00,South,188,2.0,3.0,68,0.00,,,0.00,7.000000,,2013-05-01 02:02:00,
2013-04-30 21:11:00,56.0,46.0,-100.00,South,188,2.0,3.0,68,0.00,,,0.00,7.000000,,2013-05-01 02:11:00,
2013-04-30 21:21:00,56.0,46.0,-100.00,South,188,2.0,3.0,68,0.00,,,0.00,7.000000,,2013-05-01 02:21:00,
2013-04-30 21:32:00,56.0,46.0,-100.00,South,188,2.0,3.0,68,0.00,,,0.00,7.000000,,2013-05-01 02:32:00,
2013-04-30 22:02:00,49.0,43.0,-100.00,SW,220,2.0,3.0,81,0.00,,,0.00,1.000000,,2013-05-01 03:02:00,
2013-04-30 22:11:00,49.0,43.0,-100.00,SW,220,2.0,3.0,81,0.00,,,0.00,1.000000,,2013-05-01 03:11:00,
2013-04-30 22:21:00,49.0,43.0,-100.00,SW,220,2.0,3.0,81,0.00,,,0.00,1.000000,,2013-05-01 03:21:00,
2013-04-30 22:33:00,49.0,43.0,-100.00,SW,220,2.0,3.0,81,0.00,,,0.00,1.000000,,2013-05-01 03:33:00,
2013-04-30 23:03:00,47.0,42.0,-100.00,SSW,212,2.0,3.0,82,0.00,,,-99.99,1.000000,,2013-05-01 04:03:00,
2013-04-30 23:12:00,47.0,42.0,-100.00,SSW,212,2.0,3.0,82,0.00,,,-99.99,1.000000,,2013-05-01 04:12:00,
2013-04-30 23:22:00,47.0,42.0,-100.00,SSW,212,2.0,3.0,82,0.00,,,-99.99,1.000000,,2013-05-01 04:22:00,
2013-04-30 23:32:00,47.0,42.0,-100.00,SSW,212,2.0,3.0,82,0.00,,,-99.99,1.000000,,2013-05-01 04:32:00,